Location: Ambrosina
(19.9365°S, 43.9833°W)
Time: 09:13:00
(UTC+00:00)

ARGOS - Pass Details

Date: 11 May 2021
Orbit: 821 x 834 km, 98.4° (Epoch: 22 June)

Event Time Altitude Azimuth Distance (km) Brightness Sun altitude
Exits shadow 23:01:08 35° 301° (WNW) 1,298 4.5 -35.6°
Drops below altitude 10° 23:04:33 10° 328° (NNW) 2,415 6.0 -36.4°
Sets 23:06:57 0° 333° (NNW) 3,339 6.7 -37.0°
